When you browse on this site, cookies collect data to enhance your experience and personalize the content and advertising you see.
Visit our Privacy Policy to learn more. By continuing to use the site, you agree to this use of cookies and data.
  • In Austria
  • List of Countries
  • For 7 days
  • Water Temperature
  • Weather Map
  • News
  • Weather Widgets
  • user-avatar
    Login

    Hourly Weather Tetepango

    Today, 26 January, Sunday

    Time Temperature Precipitation Wind Pressure Humidity
    00:00 +13°C° 0 mm 1 mps 589 mmHg 65%
    01:00 +12°C° 0 mm 1 mps 588 mmHg 66%
    02:00 +12°C° 0 mm 1 mps 588 mmHg 67%
    03:00 +12°C° 0 mm 1 mps 588 mmHg 67%
    04:00 +11°C° 0 mm 1 mps 588 mmHg 68%
    05:00 +10°C° 0 mm 0 mps 587 mmHg 68%
    06:00 +12°C° 0 mm 1 mps 588 mmHg 63%
    07:00 +13°C° 0 mm 1 mps 589 mmHg 58%
    08:00 +14°C° 0 mm 1 mps 590 mmHg 53%
    09:00 +16°C° 0 mm 1 mps 591 mmHg 47%
    10:00 +19°C° 0 mm 1 mps 591 mmHg 42%
    11:00 +21°C° 0 mm 1 mps 591 mmHg 37%
    12:00 +20°C° 0 mm 2 mps 591 mmHg 36%
    13:00 +20°C° 0 mm 3 mps 590 mmHg 36%
    14:00 +20°C° 0 mm 4 mps 590 mmHg 36%
    15:00 +20°C° 0 mm 3 mps 590 mmHg 39%
    16:00 +19°C° 0 mm 3 mps 590 mmHg 41%
    17:00 +18°C° 0 mm 3 mps 589 mmHg 44%
    18:00 +17°C° 0 mm 2 mps 589 mmHg 49%
    19:00 +16°C° 0 mm 1 mps 589 mmHg 55%
    20:00 +15°C° 0 mm 1 mps 589 mmHg 60%
    21:00 +14°C° 0.1 mm 1 mps 589 mmHg 65%
    22:00 +14°C° 0.1 mm 1 mps 589 mmHg 70%
    23:00 +13°C° 0.1 mm 1 mps 588 mmHg 74%

    Tomorrow, 27 January, Monday

    Time Temperature Precipitation Wind Pressure Humidity
    00:00 +12°C° 0 mm 1 mps 588 mmHg 76%
    01:00 +12°C° 0 mm 1 mps 588 mmHg 78%
    02:00 +11°C° 0 mm 1 mps 587 mmHg 80%
    03:00 +10°C° 0 mm 0 mps 587 mmHg 81%
    04:00 +10°C° 0 mm 0 mps 587 mmHg 81%
    05:00 +9°C° 0 mm 0 mps 587 mmHg 82%
    06:00 +10°C° 0 mm 0 mps 588 mmHg 75%
    07:00 +12°C° 0 mm 0 mps 589 mmHg 69%
    08:00 +14°C° 0 mm 1 mps 590 mmHg 62%
    09:00 +16°C° 0 mm 1 mps 590 mmHg 52%
    10:00 +17°C° 0 mm 2 mps 590 mmHg 42%
    11:00 +19°C° 0 mm 2 mps 591 mmHg 31%
    12:00 +20°C° 0 mm 3 mps 591 mmHg 27%
    13:00 +22°C° 0 mm 3 mps 590 mmHg 23%
    14:00 +23°C° 0 mm 4 mps 590 mmHg 19%
    15:00 +22°C° 0 mm 4 mps 590 mmHg 21%
    16:00 +21°C° 0 mm 3 mps 589 mmHg 24%
    17:00 +20°C° 0 mm 3 mps 589 mmHg 27%
    18:00 +18°C° 0 mm 2 mps 589 mmHg 35%
    19:00 +16°C° 0 mm 1 mps 588 mmHg 43%
    20:00 +15°C° 0 mm 1 mps 588 mmHg 51%
    21:00 +14°C° 0 mm 1 mps 588 mmHg 51%
    22:00 +13°C° 0 mm 1 mps 588 mmHg 51%
    23:00 +13°C° 0 mm 1 mps 587 mmHg 52%

    Day after tomorrow, 28 January, Tuesday

    Time Temperature Precipitation Wind Pressure Humidity
    00:00 +12°C° 0 mm 1 mps 587 mmHg 51%
    01:00 +11°C° 0 mm 1 mps 586 mmHg 50%
    02:00 +11°C° 0 mm 1 mps 586 mmHg 49%
    03:00 +10°C° 0 mm 1 mps 585 mmHg 49%
    04:00 +10°C° 0 mm 1 mps 585 mmHg 49%
    05:00 +9°C° 0 mm 1 mps 585 mmHg 49%
    06:00 +11°C° 0 mm 1 mps 586 mmHg 44%
    07:00 +12°C° 0 mm 1 mps 587 mmHg 39%
    08:00 +14°C° 0 mm 1 mps 588 mmHg 34%
    09:00 +16°C° 0 mm 1 mps 589 mmHg 28%
    10:00 +19°C° 0 mm 1 mps 589 mmHg 22%
    11:00 +21°C° 0 mm 1 mps 590 mmHg 16%
    12:00 +20°C° 0 mm 2 mps 589 mmHg 15%
    13:00 +21°C° 0 mm 2 mps 589 mmHg 14%
    14:00 +23°C° 0 mm 2 mps 589 mmHg 12%
    15:00 +21°C° 0 mm 3 mps 589 mmHg 17%
    16:00 +20°C° 0 mm 4 mps 588 mmHg 21%
    17:00 +19°C° 0 mm 5 mps 588 mmHg 26%
    18:00 +17°C° 0 mm 4 mps 588 mmHg 35%
    19:00 +16°C° 0 mm 3 mps 588 mmHg 44%
    20:00 +14°C° 0 mm 1 mps 588 mmHg 53%
    21:00 +14°C° 0 mm 1 mps 588 mmHg 61%
    22:00 +13°C° 0 mm 1 mps 588 mmHg 69%
    23:00 +12°C° 0 mm 1 mps 588 mmHg 78%

    29 January, Wednesday

    Time Temperature Precipitation Wind Pressure Humidity
    00:00 +11°C° 0 mm 1 mps 587 mmHg 82%
    01:00 +11°C° 0 mm 1 mps 587 mmHg 86%
    02:00 +10°C° 0 mm 1 mps 587 mmHg 90%
    03:00 +10°C° 0 mm 1 mps 587 mmHg 91%
    04:00 +10°C° 0 mm 1 mps 587 mmHg 92%
    05:00 +9°C° 0 mm 1 mps 587 mmHg 92%
    06:00 +10°C° 0 mm 1 mps 587 mmHg 87%
    07:00 +11°C° 0 mm 1 mps 588 mmHg 81%
    08:00 +11°C° 0 mm 1 mps 589 mmHg 76%
    09:00 +13°C° 0 mm 1 mps 589 mmHg 64%
    10:00 +15°C° 0 mm 1 mps 590 mmHg 52%
    11:00 +17°C° 0 mm 2 mps 590 mmHg 40%
    12:00 +19°C° 0 mm 2 mps 590 mmHg 33%
    13:00 +21°C° 0 mm 2 mps 590 mmHg 27%
    14:00 +22°C° 0 mm 3 mps 590 mmHg 21%
    15:00 +21°C° 0 mm 3 mps 589 mmHg 27%
    16:00 +19°C° 0 mm 3 mps 588 mmHg 34%
    17:00 +17°C° 0 mm 4 mps 587 mmHg 41%
    18:00 +14°C° 0 mm 3 mps 587 mmHg 50%
    19:00 +14°C° 0 mm 2 mps 587 mmHg 58%
    20:00 +12°C° 0 mm 1 mps 587 mmHg 67%
    21:00 +12°C° 0 mm 1 mps 587 mmHg 68%
    22:00 +11°C° 0 mm 1 mps 586 mmHg 69%
    23:00 +11°C° 0 mm 1 mps 586 mmHg 70%

    30 January, Thursday

    Time Temperature Precipitation Wind Pressure Humidity
    00:00 +11°C° 0 mm 1 mps 586 mmHg 67%
    01:00 +11°C° 0 mm 1 mps 586 mmHg 64%
    02:00 +11°C° 0 mm 1 mps 585 mmHg 61%
    03:00 +10°C° 0 mm 1 mps 585 mmHg 62%
    04:00 +10°C° 0 mm 1 mps 585 mmHg 62%
    05:00 +10°C° 0 mm 1 mps 585 mmHg 63%
    06:00 +10°C° 0 mm 2 mps 586 mmHg 58%
    07:00 +12°C° 0 mm 2 mps 587 mmHg 52%
    08:00 +13°C° 0 mm 3 mps 588 mmHg 47%
    09:00 +15°C° 0 mm 4 mps 588 mmHg 38%
    10:00 +17°C° 0 mm 6 mps 589 mmHg 29%
    11:00 +21°C° 0 mm 7 mps 590 mmHg 20%
    12:00 +22°C° 0 mm 8 mps 589 mmHg 18%
    13:00 +22°C° 0 mm 9 mps 589 mmHg 17%
    14:00 +23°C° 0 mm 9 mps 588 mmHg 15%
    15:00 +21°C° 0 mm 8 mps 588 mmHg 17%
    16:00 +20°C° 0 mm 7 mps 587 mmHg 19%
    17:00 +17°C° 0 mm 6 mps 587 mmHg 22%
    18:00 +16°C° 0 mm 5 mps 587 mmHg 25%
    19:00 +14°C° 0 mm 5 mps 587 mmHg 28%
    20:00 +13°C° 0 mm 4 mps 587 mmHg 31%
    21:00 +13°C° 0 mm 3 mps 587 mmHg 32%
    22:00 +13°C° 0 mm 3 mps 587 mmHg 33%
    23:00 +14°C° 0 mm 2 mps 588 mmHg 34%

    31 January, Friday

    Time Temperature Precipitation Wind Pressure Humidity
    00:00 +13°C° 0 mm 3 mps 587 mmHg 37%
    01:00 +12°C° 0 mm 3 mps 587 mmHg 41%
    02:00 +12°C° 0 mm 4 mps 587 mmHg 44%
    03:00 +12°C° 0 mm 3 mps 587 mmHg 46%
    04:00 +12°C° 0 mm 2 mps 587 mmHg 48%
    05:00 +12°C° 0 mm 1 mps 587 mmHg 50%
    06:00 +13°C° 0 mm 1 mps 588 mmHg 46%
    07:00 +12°C° 0 mm 0 mps 589 mmHg 43%
    08:00 +13°C° 0 mm 0 mps 590 mmHg 40%
    09:00 +15°C° 0 mm 1 mps 590 mmHg 40%
    10:00 +15°C° 0 mm 2 mps 590 mmHg 41%
    11:00 +16°C° 0 mm 2 mps 591 mmHg 41%
    12:00 +16°C° 0.3 mm 3 mps 590 mmHg 47%
    13:00 +14°C° 0.3 mm 3 mps 589 mmHg 53%
    14:00 +14°C° 0.3 mm 4 mps 589 mmHg 60%
    15:00 +13°C° 0.6 mm 3 mps 589 mmHg 66%
    16:00 +12°C° 0.6 mm 3 mps 589 mmHg 72%
    17:00 +12°C° 0.6 mm 2 mps 588 mmHg 79%
    18:00 +12°C° 0.9 mm 2 mps 589 mmHg 82%
    19:00 +10°C° 0.9 mm 2 mps 589 mmHg 86%
    20:00 +10°C° 0.9 mm 2 mps 590 mmHg 89%
    21:00 +9°C° 1.2 mm 2 mps 590 mmHg 90%
    22:00 +9°C° 1.2 mm 2 mps 590 mmHg 90%
    23:00 +9°C° 1.2 mm 2 mps 590 mmHg 91%
    Show more